Content
SEND FEEDBACK

Daily
Averages
Monthly
Summary
United States of America

SOUTH LAKE TAHOE, CALIFORNIA


Home > North America > United States > California
Elevation: 6263 feet     Latitude: 38 53N     Longitude: 119 59W

WEATHER
 
SELECT A DAY
Number of Records: 174,493;   Date Range: 1/1/95 - 8/12/14
 
SHARE

PRINT THIS DATA

[ ← Previous Day ]
WEATHER ALMANAC - JANUARY 18, 2013
[ Next Day → ]
[ °C ]   °F
Weather ElementAverageHighLow
Temperature21.8 °F44.1 °F (2:53 pm)3 °F (5:53 am)
Dewpoint9.5 °F21 °F (1:53 pm)-4 °F (5:53 am)
Humidity62.5 %77 % (1:53 am)31 % (11:53 am)
Barometer30.45 in30.56 in (8:53 am)30.35 in (12:53 pm)
Wind Speed3.2 mph8.1 mph (1:53 pm)
Weather ElementAverage
Visibility9.5 mi
Wind DirectionESE (107.3 °)

Weather ElementTotal
Precipitation---
Heating Degree Days41.5 (Base 65)
Averaged from 22 records on January 18, 2013
WEATHER CONDITIONS BREAKOUT
WIND DIRECTION BREAKOUT
WEATHER BY HOUR - JANUARY 18, 2013
[ °C ]   °F
Local TimeTemperatureDewpointHumidityBarometerVisibilityWind DirectionWind SpeedGust SpeedPrecipitationEventsConditions
1:53 AM9.0 °F3.0 °F77 %30.43 in8.0 miSouth (180°)4.6 mphClear
2:53 AM8.1 °F1.9 °F76 %30.41 in8.0 miSouth (180°)4.6 mphClear
3:53 AM6.1 °F-0.9 °F73 %30.45 in9.0 miCalmClear
4:53 AM3.9 °F-2.0 °F76 %30.48 in9.0 miSouth (190°)3.5 mphClear
5:53 AM3.0 °F-4.0 °F73 %30.51 in10.0 miCalmClear
6:53 AM3.0 °F-4.0 °F73 %30.53 in10.0 miSouth (190°)3.5 mphClear
8:53 AM10.0 °F1.9 °F70 %30.56 in10.0 miSouth (180°)3.5 mphClear
9:53 AM21.9 °F8.1 °F55 %30.50 in10.0 miSouth (180°)3.5 mphClear
10:53 AM32.0 °F10.9 °F42 %30.45 in10.0 miCalmClear
11:53 AM42.1 °F12.9 °F31 %30.38 in10.0 miCalmClear
12:53 PM43.0 °F16.0 °F34 %30.35 in10.0 miNNE (30°)5.8 mphClear
1:53 PM43.0 °F21.0 °F42 %30.35 in10.0 miNNE (30°)8.1 mphClear
2:53 PM44.1 °F19.0 °F37 %30.35 in10.0 miNNE (30°)6.9 mphClear
3:53 PM41.0 °F18.0 °F40 %30.37 in10.0 miNNE (20°)4.6 mphClear
4:53 PM33.1 °F21.0 °F61 %30.43 in10.0 miCalmClear
5:53 PM27.0 °F18.0 °F69 %30.48 in10.0 miCalmClear
6:53 PM25.0 °F16.0 °F69 %30.51 in10.0 miSSW (200°)3.5 mphClear
7:53 PM21.9 °F14.0 °F72 %30.54 in10.0 miSouth (180°)3.5 mphClear
8:53 PM19.0 °F12.9 °F77 %30.51 in10.0 miSouth (190°)3.5 mphClear
9:53 PM16.0 °F10.0 °F77 %30.48 in9.0 miSSW (200°)3.5 mphClear
10:53 PM15.1 °F8.1 °F74 %30.43 in9.0 miSouth (180°)3.5 mphClear
11:53 PM12.9 °F7.0 °F77 %30.40 in8.0 miSSW (200°)3.5 mphClear
Hourly data recorded from KTVL, located miles away from South Lake Tahoe, California







STORIES FROM OUR PARTNERS